<?xml version="1.0" encoding="UTF-8" standalone="no" ?>
<gpx xmlns="http://www.topografix.com/GPX/1/1" xmlns:xsi="http://www.w3.org/2001/XMLSchema-instance" xsi:schemaLocation="http://www.topografix.com/GPX/1/1 http://www.topografix.com/GPX/1/1/gpx.xsd" version="1.1" creator="VisuGPX - https://www.visugpx.com">
  <metadata>
    <name>Etape 1 Le Monastier, St Front, chemin de St Régis</name>
    <desc><![CDATA[
comment ...]]></desc>
  </metadata>
  <trk>
    <name><![CDATA[Chemin de St Regis]]></name>
    <desc><![CDATA[comment ...]]></desc>
    <extensions>
      <line xmlns="http://www.topografix.com/GPX/gpx_style/0/2">
        <color>0000FF</color>
        <width>4</width>
      </line>
    </extensions>
    <trkseg>
      <trkpt lat="44.93917" lon="3.99611">
        <ele>946</ele>
        <time>2023-02-07T16:08:16Z</time>
      </trkpt>
      <trkpt lat="44.93964" lon="3.99597">
        <ele>947</ele>
        <time>2023-02-07T16:08:16Z</time>
      </trkpt>
      <trkpt lat="44.93985" lon="3.99596">
        <ele>948</ele>
        <time>2023-02-07T16:08:16Z</time>
      </trkpt>
      <trkpt lat="44.94161" lon="3.99649">
        <ele>965.5</ele>
        <time>2023-02-07T16:08:16Z</time>
      </trkpt>
      <trkpt lat="44.9422" lon="3.99565">
        <ele>962.5</ele>
        <time>2023-02-07T16:08:16Z</time>
      </trkpt>
      <trkpt lat="44.94255" lon="3.99557">
        <ele>964.2</ele>
        <time>2023-02-07T16:08:16Z</time>
      </trkpt>
      <trkpt lat="44.94324" lon="3.99572">
        <ele>968.3</ele>
        <time>2023-02-07T16:08:16Z</time>
      </trkpt>
      <trkpt lat="44.94394" lon="3.99516">
        <ele>969.1</ele>
        <time>2023-02-07T16:08:16Z</time>
      </trkpt>
      <trkpt lat="44.94433" lon="3.99505">
        <ele>973</ele>
        <time>2023-02-07T16:08:16Z</time>
      </trkpt>
      <trkpt lat="44.9448" lon="3.99473">
        <ele>973.2</ele>
        <time>2023-02-07T16:08:16Z</time>
      </trkpt>
      <trkpt lat="44.94556" lon="3.99473">
        <ele>983.1</ele>
        <time>2023-02-07T16:08:16Z</time>
      </trkpt>
      <trkpt lat="44.946" lon="3.99492">
        <ele>992</ele>
        <time>2023-02-07T16:08:16Z</time>
      </trkpt>
      <trkpt lat="44.9467" lon="3.99501">
        <ele>1008.9</ele>
        <time>2023-02-07T16:08:16Z</time>
      </trkpt>
      <trkpt lat="44.94656" lon="3.99544">
        <ele>1015.5</ele>
        <time>2023-02-07T16:08:16Z</time>
      </trkpt>
      <trkpt lat="44.94577" lon="3.9964">
        <ele>1024.1</ele>
        <time>2023-02-07T16:08:16Z</time>
      </trkpt>
      <trkpt lat="44.94542" lon="3.99735">
        <ele>1026.5</ele>
        <time>2023-02-07T16:08:16Z</time>
      </trkpt>
      <trkpt lat="44.94553" lon="3.99842">
        <ele>1026.1</ele>
        <time>2023-02-07T16:08:16Z</time>
      </trkpt>
      <trkpt lat="44.94567" lon="3.99939">
        <ele>1025.3</ele>
        <time>2023-02-07T16:08:16Z</time>
      </trkpt>
      <trkpt lat="44.94568" lon="3.99996">
        <ele>1025.1</ele>
        <time>2023-02-07T16:08:16Z</time>
      </trkpt>
      <trkpt lat="44.94588" lon="4.00183">
        <ele>1026.4</ele>
        <time>2023-02-07T16:08:16Z</time>
      </trkpt>
      <trkpt lat="44.94618" lon="4.00209">
        <ele>1026.8</ele>
        <time>2023-02-07T16:08:16Z</time>
      </trkpt>
      <trkpt lat="44.94635" lon="4.00348">
        <ele>1031.8</ele>
        <time>2023-02-07T16:08:16Z</time>
      </trkpt>
      <trkpt lat="44.94647" lon="4.00473">
        <ele>1035.4</ele>
        <time>2023-02-07T16:08:16Z</time>
      </trkpt>
      <trkpt lat="44.94612" lon="4.00567">
        <ele>1036.5</ele>
        <time>2023-02-07T16:08:16Z</time>
      </trkpt>
      <trkpt lat="44.94594" lon="4.00649">
        <ele>1037.6</ele>
        <time>2023-02-07T16:08:16Z</time>
      </trkpt>
      <trkpt lat="44.94588" lon="4.00765">
        <ele>1037.1</ele>
        <time>2023-02-07T16:08:16Z</time>
      </trkpt>
      <trkpt lat="44.94588" lon="4.00902">
        <ele>1038.7</ele>
        <time>2023-02-07T16:08:16Z</time>
      </trkpt>
      <trkpt lat="44.94596" lon="4.01039">
        <ele>1040</ele>
        <time>2023-02-07T16:08:16Z</time>
      </trkpt>
      <trkpt lat="44.94561" lon="4.01102">
        <ele>1039.3</ele>
        <time>2023-02-07T16:08:16Z</time>
      </trkpt>
      <trkpt lat="44.94554" lon="4.01126">
        <ele>1039.1</ele>
        <time>2023-02-07T16:08:16Z</time>
      </trkpt>
      <trkpt lat="44.94584" lon="4.01276">
        <ele>1047</ele>
        <time>2023-02-07T16:08:16Z</time>
      </trkpt>
      <trkpt lat="44.94593" lon="4.01302">
        <ele>1047.6</ele>
        <time>2023-02-07T16:08:16Z</time>
      </trkpt>
      <trkpt lat="44.94606" lon="4.01419">
        <ele>1050.8</ele>
        <time>2023-02-07T16:08:16Z</time>
      </trkpt>
      <trkpt lat="44.946" lon="4.01477">
        <ele>1054.7</ele>
        <time>2023-02-07T16:08:16Z</time>
      </trkpt>
      <trkpt lat="44.94557" lon="4.01624">
        <ele>1061.5</ele>
        <time>2023-02-07T16:08:16Z</time>
      </trkpt>
      <trkpt lat="44.94557" lon="4.01637">
        <ele>1061.9</ele>
        <time>2023-02-07T16:08:16Z</time>
      </trkpt>
      <trkpt lat="44.94518" lon="4.01767">
        <ele>1065.5</ele>
        <time>2023-02-07T16:08:16Z</time>
      </trkpt>
      <trkpt lat="44.94453" lon="4.02364">
        <ele>1084.5</ele>
        <time>2023-02-07T16:08:16Z</time>
      </trkpt>
      <trkpt lat="44.94455" lon="4.0242">
        <ele>1084.6</ele>
        <time>2023-02-07T16:08:16Z</time>
      </trkpt>
      <trkpt lat="44.94448" lon="4.02457">
        <ele>1086.2</ele>
        <time>2023-02-07T16:08:16Z</time>
      </trkpt>
      <trkpt lat="44.94368" lon="4.02693">
        <ele>1087.3</ele>
        <time>2023-02-07T16:08:16Z</time>
      </trkpt>
      <trkpt lat="44.94336" lon="4.02829">
        <ele>1086.6</ele>
        <time>2023-02-07T16:08:16Z</time>
      </trkpt>
      <trkpt lat="44.9432" lon="4.02863">
        <ele>1087.9</ele>
        <time>2023-02-07T16:08:16Z</time>
      </trkpt>
      <trkpt lat="44.94289" lon="4.02909">
        <ele>1090</ele>
        <time>2023-02-07T16:08:16Z</time>
      </trkpt>
      <trkpt lat="44.94242" lon="4.0304">
        <ele>1091</ele>
        <time>2023-02-07T16:08:16Z</time>
      </trkpt>
      <trkpt lat="44.9419" lon="4.03122">
        <ele>1090.2</ele>
        <time>2023-02-07T16:08:16Z</time>
      </trkpt>
      <trkpt lat="44.94185" lon="4.03135">
        <ele>1090.4</ele>
        <time>2023-02-07T16:08:16Z</time>
      </trkpt>
      <trkpt lat="44.94133" lon="4.03349">
        <ele>1087.8</ele>
        <time>2023-02-07T16:08:16Z</time>
      </trkpt>
      <trkpt lat="44.94138" lon="4.03859">
        <ele>1087.1</ele>
        <time>2023-02-07T16:08:16Z</time>
      </trkpt>
      <trkpt lat="44.94147" lon="4.03885">
        <ele>1086.7</ele>
        <time>2023-02-07T16:08:16Z</time>
      </trkpt>
      <trkpt lat="44.94183" lon="4.03966">
        <ele>1087.8</ele>
        <time>2023-02-07T16:08:16Z</time>
      </trkpt>
      <trkpt lat="44.94187" lon="4.03984">
        <ele>1089.4</ele>
        <time>2023-02-07T16:08:16Z</time>
      </trkpt>
      <trkpt lat="44.94187" lon="4.04019">
        <ele>1092.1</ele>
        <time>2023-02-07T16:08:16Z</time>
      </trkpt>
      <trkpt lat="44.94191" lon="4.0403">
        <ele>1092.6</ele>
        <time>2023-02-07T16:08:16Z</time>
      </trkpt>
      <trkpt lat="44.94217" lon="4.04062">
        <ele>1095.2</ele>
        <time>2023-02-07T16:08:16Z</time>
      </trkpt>
      <trkpt lat="44.94231" lon="4.04071">
        <ele>1096.5</ele>
        <time>2023-02-07T16:08:16Z</time>
      </trkpt>
      <trkpt lat="44.9424" lon="4.0408">
        <ele>1097.2</ele>
        <time>2023-02-07T16:08:16Z</time>
      </trkpt>
      <trkpt lat="44.94244" lon="4.04089">
        <ele>1097.8</ele>
        <time>2023-02-07T16:08:16Z</time>
      </trkpt>
      <trkpt lat="44.94293" lon="4.04242">
        <ele>1104.4</ele>
        <time>2023-02-07T16:08:16Z</time>
      </trkpt>
      <trkpt lat="44.94312" lon="4.04286">
        <ele>1106.7</ele>
        <time>2023-02-07T16:08:16Z</time>
      </trkpt>
      <trkpt lat="44.94325" lon="4.04336">
        <ele>1106.6</ele>
        <time>2023-02-07T16:08:16Z</time>
      </trkpt>
      <trkpt lat="44.94346" lon="4.04364">
        <ele>1106</ele>
        <time>2023-02-07T16:08:16Z</time>
      </trkpt>
      <trkpt lat="44.94403" lon="4.04422">
        <ele>1104.5</ele>
        <time>2023-02-07T16:08:16Z</time>
      </trkpt>
      <trkpt lat="44.94427" lon="4.04453">
        <ele>1103.6</ele>
        <time>2023-02-07T16:08:16Z</time>
      </trkpt>
      <trkpt lat="44.94648" lon="4.04671">
        <ele>1097.2</ele>
        <time>2023-02-07T16:08:16Z</time>
      </trkpt>
      <trkpt lat="44.94658" lon="4.04686">
        <ele>1097.7</ele>
        <time>2023-02-07T16:08:16Z</time>
      </trkpt>
      <trkpt lat="44.94631" lon="4.04707">
        <ele>1097.6</ele>
        <time>2023-02-07T16:08:16Z</time>
      </trkpt>
      <trkpt lat="44.94621" lon="4.04726">
        <ele>1096.7</ele>
        <time>2023-02-07T16:08:16Z</time>
      </trkpt>
      <trkpt lat="44.94621" lon="4.04726">
        <ele>1096.7</ele>
        <time>2023-02-07T16:08:16Z</time>
      </trkpt>
      <trkpt lat="44.94628" lon="4.04712">
        <ele>1097.3</ele>
        <time>2023-02-07T16:08:16Z</time>
      </trkpt>
      <trkpt lat="44.94653" lon="4.0469">
        <ele>1097.9</ele>
        <time>2023-02-07T16:08:16Z</time>
      </trkpt>
      <trkpt lat="44.94663" lon="4.04696">
        <ele>1098.1</ele>
        <time>2023-02-07T16:08:16Z</time>
      </trkpt>
      <trkpt lat="44.94597" lon="4.04773">
        <ele>1093.6</ele>
        <time>2023-02-07T16:08:16Z</time>
      </trkpt>
      <trkpt lat="44.94545" lon="4.04992">
        <ele>1076.7</ele>
        <time>2023-02-07T16:08:16Z</time>
      </trkpt>
      <trkpt lat="44.94439" lon="4.05168">
        <ele>1070.5</ele>
        <time>2023-02-07T16:08:16Z</time>
      </trkpt>
      <trkpt lat="44.94366" lon="4.05247">
        <ele>1073.3</ele>
        <time>2023-02-07T16:08:16Z</time>
      </trkpt>
      <trkpt lat="44.9434" lon="4.05307">
        <ele>1073.7</ele>
        <time>2023-02-07T16:08:16Z</time>
      </trkpt>
      <trkpt lat="44.94216" lon="4.05361">
        <ele>1082.5</ele>
        <time>2023-02-07T16:08:16Z</time>
      </trkpt>
      <trkpt lat="44.94131" lon="4.05417">
        <ele>1085.7</ele>
        <time>2023-02-07T16:08:16Z</time>
      </trkpt>
      <trkpt lat="44.94108" lon="4.05445">
        <ele>1086.8</ele>
        <time>2023-02-07T16:08:16Z</time>
      </trkpt>
      <trkpt lat="44.94117" lon="4.05513">
        <ele>1090.5</ele>
        <time>2023-02-07T16:08:16Z</time>
      </trkpt>
      <trkpt lat="44.94049" lon="4.05636">
        <ele>1104.3</ele>
        <time>2023-02-07T16:08:16Z</time>
      </trkpt>
      <trkpt lat="44.9399" lon="4.05741">
        <ele>1110.6</ele>
        <time>2023-02-07T16:08:16Z</time>
      </trkpt>
      <trkpt lat="44.93955" lon="4.05897">
        <ele>1125.8</ele>
        <time>2023-02-07T16:08:16Z</time>
      </trkpt>
      <trkpt lat="44.93938" lon="4.05951">
        <ele>1125.4</ele>
        <time>2023-02-07T16:08:16Z</time>
      </trkpt>
      <trkpt lat="44.93873" lon="4.05979">
        <ele>1121.5</ele>
        <time>2023-02-07T16:08:16Z</time>
      </trkpt>
      <trkpt lat="44.93812" lon="4.06144">
        <ele>1133.3</ele>
        <time>2023-02-07T16:08:16Z</time>
      </trkpt>
      <trkpt lat="44.93778" lon="4.0626">
        <ele>1140.7</ele>
        <time>2023-02-07T16:08:16Z</time>
      </trkpt>
      <trkpt lat="44.93759" lon="4.06387">
        <ele>1145.5</ele>
        <time>2023-02-07T16:08:16Z</time>
      </trkpt>
      <trkpt lat="44.93778" lon="4.06505">
        <ele>1150</ele>
        <time>2023-02-07T16:08:16Z</time>
      </trkpt>
      <trkpt lat="44.93794" lon="4.06578">
        <ele>1151.5</ele>
        <time>2023-02-07T16:08:16Z</time>
      </trkpt>
      <trkpt lat="44.93848" lon="4.06747">
        <ele>1159.4</ele>
        <time>2023-02-07T16:08:16Z</time>
      </trkpt>
      <trkpt lat="44.93877" lon="4.06844">
        <ele>1164.5</ele>
        <time>2023-02-07T16:08:16Z</time>
      </trkpt>
      <trkpt lat="44.93929" lon="4.06846">
        <ele>1170.1</ele>
        <time>2023-02-07T16:08:16Z</time>
      </trkpt>
      <trkpt lat="44.93993" lon="4.06979">
        <ele>1180.2</ele>
        <time>2023-02-07T16:08:16Z</time>
      </trkpt>
      <trkpt lat="44.93936" lon="4.07125">
        <ele>1184.5</ele>
        <time>2023-02-07T16:08:16Z</time>
      </trkpt>
      <trkpt lat="44.93942" lon="4.07226">
        <ele>1186</ele>
        <time>2023-02-07T16:08:16Z</time>
      </trkpt>
      <trkpt lat="44.9398" lon="4.07462">
        <ele>1187</ele>
        <time>2023-02-07T16:08:16Z</time>
      </trkpt>
      <trkpt lat="44.94003" lon="4.07558">
        <ele>1187.9</ele>
        <time>2023-02-07T16:08:16Z</time>
      </trkpt>
      <trkpt lat="44.94002" lon="4.07642">
        <ele>1188</ele>
        <time>2023-02-07T16:08:16Z</time>
      </trkpt>
      <trkpt lat="44.9402" lon="4.0771">
        <ele>1188</ele>
        <time>2023-02-07T16:08:16Z</time>
      </trkpt>
      <trkpt lat="44.94011" lon="4.07709">
        <ele>1188</ele>
        <time>2023-02-07T16:08:16Z</time>
      </trkpt>
      <trkpt lat="44.94011" lon="4.07721">
        <ele>1188</ele>
        <time>2023-02-07T16:08:16Z</time>
      </trkpt>
      <trkpt lat="44.94015" lon="4.07775">
        <ele>1187.1</ele>
        <time>2023-02-07T16:08:16Z</time>
      </trkpt>
      <trkpt lat="44.94006" lon="4.07845">
        <ele>1187.1</ele>
        <time>2023-02-07T16:08:16Z</time>
      </trkpt>
      <trkpt lat="44.93989" lon="4.07902">
        <ele>1187.4</ele>
        <time>2023-02-07T16:08:16Z</time>
      </trkpt>
      <trkpt lat="44.94001" lon="4.07925">
        <ele>1187</ele>
        <time>2023-02-07T16:08:16Z</time>
      </trkpt>
      <trkpt lat="44.94029" lon="4.07963">
        <ele>1187.6</ele>
        <time>2023-02-07T16:08:16Z</time>
      </trkpt>
      <trkpt lat="44.94068" lon="4.08075">
        <ele>1188.9</ele>
        <time>2023-02-07T16:08:16Z</time>
      </trkpt>
      <trkpt lat="44.94135" lon="4.08179">
        <ele>1190.9</ele>
        <time>2023-02-07T16:08:16Z</time>
      </trkpt>
      <trkpt lat="44.94192" lon="4.08328">
        <ele>1193</ele>
        <time>2023-02-07T16:08:16Z</time>
      </trkpt>
      <trkpt lat="44.94178" lon="4.08533">
        <ele>1198</ele>
        <time>2023-02-07T16:08:16Z</time>
      </trkpt>
      <trkpt lat="44.94126" lon="4.08859">
        <ele>1206.9</ele>
        <time>2023-02-07T16:08:16Z</time>
      </trkpt>
      <trkpt lat="44.94093" lon="4.09058">
        <ele>1212</ele>
        <time>2023-02-07T16:08:16Z</time>
      </trkpt>
      <trkpt lat="44.94176" lon="4.0909">
        <ele>1212.7</ele>
        <time>2023-02-07T16:08:16Z</time>
      </trkpt>
      <trkpt lat="44.94254" lon="4.09073">
        <ele>1210.9</ele>
        <time>2023-02-07T16:08:16Z</time>
      </trkpt>
      <trkpt lat="44.94412" lon="4.08842">
        <ele>1191.1</ele>
        <time>2023-02-07T16:08:16Z</time>
      </trkpt>
      <trkpt lat="44.94484" lon="4.09026">
        <ele>1190.2</ele>
        <time>2023-02-07T16:08:16Z</time>
      </trkpt>
      <trkpt lat="44.94585" lon="4.0891">
        <ele>1169.4</ele>
        <time>2023-02-07T16:08:16Z</time>
      </trkpt>
      <trkpt lat="44.94715" lon="4.08872">
        <ele>1137.1</ele>
        <time>2023-02-07T16:08:16Z</time>
      </trkpt>
      <trkpt lat="44.94767" lon="4.09142">
        <ele>1122.2</ele>
        <time>2023-02-07T16:08:16Z</time>
      </trkpt>
      <trkpt lat="44.9487" lon="4.09091">
        <ele>1129.3</ele>
        <time>2023-02-07T16:08:16Z</time>
      </trkpt>
      <trkpt lat="44.94946" lon="4.08953">
        <ele>1137.2</ele>
        <time>2023-02-07T16:08:16Z</time>
      </trkpt>
      <trkpt lat="44.95016" lon="4.08812">
        <ele>1147.8</ele>
        <time>2023-02-07T16:08:16Z</time>
      </trkpt>
      <trkpt lat="44.95022" lon="4.09031">
        <ele>1170.6</ele>
        <time>2023-02-07T16:08:16Z</time>
      </trkpt>
      <trkpt lat="44.95116" lon="4.08945">
        <ele>1175.2</ele>
        <time>2023-02-07T16:08:16Z</time>
      </trkpt>
      <trkpt lat="44.95162" lon="4.08996">
        <ele>1177</ele>
        <time>2023-02-07T16:08:16Z</time>
      </trkpt>
      <trkpt lat="44.95268" lon="4.08897">
        <ele>1178.8</ele>
        <time>2023-02-07T16:08:16Z</time>
      </trkpt>
      <trkpt lat="44.95377" lon="4.08842">
        <ele>1179</ele>
        <time>2023-02-07T16:08:16Z</time>
      </trkpt>
      <trkpt lat="44.95481" lon="4.08979">
        <ele>1187.3</ele>
        <time>2023-02-07T16:08:16Z</time>
      </trkpt>
      <trkpt lat="44.95292" lon="4.09224">
        <ele>1178.4</ele>
        <time>2023-02-07T16:08:16Z</time>
      </trkpt>
      <trkpt lat="44.95487" lon="4.09219">
        <ele>1169.1</ele>
        <time>2023-02-07T16:08:16Z</time>
      </trkpt>
      <trkpt lat="44.95472" lon="4.09378">
        <ele>1160.4</ele>
        <time>2023-02-07T16:08:16Z</time>
      </trkpt>
      <trkpt lat="44.95481" lon="4.09511">
        <ele>1155.6</ele>
        <time>2023-02-07T16:08:16Z</time>
      </trkpt>
      <trkpt lat="44.95408" lon="4.09687">
        <ele>1161.3</ele>
        <time>2023-02-07T16:08:16Z</time>
      </trkpt>
      <trkpt lat="44.95447" lon="4.09794">
        <ele>1159.5</ele>
        <time>2023-02-07T16:08:16Z</time>
      </trkpt>
      <trkpt lat="44.95505" lon="4.09915">
        <ele>1162.8</ele>
        <time>2023-02-07T16:08:16Z</time>
      </trkpt>
      <trkpt lat="44.95495" lon="4.10018">
        <ele>1165.9</ele>
        <time>2023-02-07T16:08:16Z</time>
      </trkpt>
      <trkpt lat="44.95496" lon="4.09996">
        <ele>1165.2</ele>
        <time>2023-02-07T16:08:16Z</time>
      </trkpt>
      <trkpt lat="44.95496" lon="4.09996">
        <ele>1165.2</ele>
        <time>2023-02-07T16:08:16Z</time>
      </trkpt>
      <trkpt lat="44.95498" lon="4.10009">
        <ele>1165.5</ele>
        <time>2023-02-07T16:08:16Z</time>
      </trkpt>
      <trkpt lat="44.9549" lon="4.10021">
        <ele>1166.2</ele>
        <time>2023-02-07T16:08:16Z</time>
      </trkpt>
      <trkpt lat="44.95492" lon="4.10049">
        <ele>1166.3</ele>
        <time>2023-02-07T16:08:16Z</time>
      </trkpt>
      <trkpt lat="44.95476" lon="4.10104">
        <ele>1167.8</ele>
        <time>2023-02-07T16:08:16Z</time>
      </trkpt>
      <trkpt lat="44.95445" lon="4.10154">
        <ele>1169.5</ele>
        <time>2023-02-07T16:08:16Z</time>
      </trkpt>
      <trkpt lat="44.95429" lon="4.10194">
        <ele>1171.5</ele>
        <time>2023-02-07T16:08:16Z</time>
      </trkpt>
      <trkpt lat="44.95414" lon="4.10214">
        <ele>1172.9</ele>
        <time>2023-02-07T16:08:16Z</time>
      </trkpt>
      <trkpt lat="44.95285" lon="4.10345">
        <ele>1185.6</ele>
        <time>2023-02-07T16:08:16Z</time>
      </trkpt>
      <trkpt lat="44.95161" lon="4.10426">
        <ele>1198.9</ele>
        <time>2023-02-07T16:08:16Z</time>
      </trkpt>
      <trkpt lat="44.95149" lon="4.1044">
        <ele>1200.6</ele>
        <time>2023-02-07T16:08:16Z</time>
      </trkpt>
      <trkpt lat="44.95138" lon="4.10464">
        <ele>1201.4</ele>
        <time>2023-02-07T16:08:16Z</time>
      </trkpt>
      <trkpt lat="44.9508" lon="4.10728">
        <ele>1206.9</ele>
        <time>2023-02-07T16:08:16Z</time>
      </trkpt>
      <trkpt lat="44.95064" lon="4.10755">
        <ele>1205.6</ele>
        <time>2023-02-07T16:08:16Z</time>
      </trkpt>
      <trkpt lat="44.95021" lon="4.108">
        <ele>1202.4</ele>
        <time>2023-02-07T16:08:16Z</time>
      </trkpt>
      <trkpt lat="44.94983" lon="4.10821">
        <ele>1198.7</ele>
        <time>2023-02-07T16:08:16Z</time>
      </trkpt>
      <trkpt lat="44.94958" lon="4.10825">
        <ele>1196</ele>
        <time>2023-02-07T16:08:16Z</time>
      </trkpt>
      <trkpt lat="44.94932" lon="4.10819">
        <ele>1192.2</ele>
        <time>2023-02-07T16:08:16Z</time>
      </trkpt>
      <trkpt lat="44.9487" lon="4.10791">
        <ele>1183.6</ele>
        <time>2023-02-07T16:08:16Z</time>
      </trkpt>
      <trkpt lat="44.94818" lon="4.10788">
        <ele>1176.5</ele>
        <time>2023-02-07T16:08:16Z</time>
      </trkpt>
      <trkpt lat="44.94756" lon="4.10811">
        <ele>1171.2</ele>
        <time>2023-02-07T16:08:16Z</time>
      </trkpt>
      <trkpt lat="44.94728" lon="4.1083">
        <ele>1169.5</ele>
        <time>2023-02-07T16:08:16Z</time>
      </trkpt>
      <trkpt lat="44.9472" lon="4.10838">
        <ele>1168.9</ele>
        <time>2023-02-07T16:08:16Z</time>
      </trkpt>
      <trkpt lat="44.94655" lon="4.10964">
        <ele>1161.4</ele>
        <time>2023-02-07T16:08:16Z</time>
      </trkpt>
      <trkpt lat="44.94548" lon="4.11105">
        <ele>1154.7</ele>
        <time>2023-02-07T16:08:16Z</time>
      </trkpt>
      <trkpt lat="44.94488" lon="4.11212">
        <ele>1150.2</ele>
        <time>2023-02-07T16:08:16Z</time>
      </trkpt>
      <trkpt lat="44.9443" lon="4.11279">
        <ele>1145.4</ele>
        <time>2023-02-07T16:08:16Z</time>
      </trkpt>
      <trkpt lat="44.94425" lon="4.11291">
        <ele>1144.6</ele>
        <time>2023-02-07T16:08:16Z</time>
      </trkpt>
      <trkpt lat="44.94422" lon="4.11306">
        <ele>1143.6</ele>
        <time>2023-02-07T16:08:16Z</time>
      </trkpt>
      <trkpt lat="44.94426" lon="4.11344">
        <ele>1142.2</ele>
        <time>2023-02-07T16:08:16Z</time>
      </trkpt>
      <trkpt lat="44.94439" lon="4.11399">
        <ele>1140.7</ele>
        <time>2023-02-07T16:08:16Z</time>
      </trkpt>
      <trkpt lat="44.9446" lon="4.11581">
        <ele>1137</ele>
        <time>2023-02-07T16:08:16Z</time>
      </trkpt>
      <trkpt lat="44.94456" lon="4.11636">
        <ele>1142.5</ele>
        <time>2023-02-07T16:08:16Z</time>
      </trkpt>
      <trkpt lat="44.94465" lon="4.11637">
        <ele>1143.3</ele>
        <time>2023-02-07T16:08:16Z</time>
      </trkpt>
      <trkpt lat="44.94472" lon="4.11629">
        <ele>1143.6</ele>
        <time>2023-02-07T16:08:16Z</time>
      </trkpt>
      <trkpt lat="44.94412" lon="4.11816">
        <ele>1158.2</ele>
        <time>2023-02-07T16:08:16Z</time>
      </trkpt>
      <trkpt lat="44.94424" lon="4.12039">
        <ele>1174.8</ele>
        <time>2023-02-07T16:08:16Z</time>
      </trkpt>
      <trkpt lat="44.94582" lon="4.12026">
        <ele>1182.6</ele>
        <time>2023-02-07T16:08:16Z</time>
      </trkpt>
      <trkpt lat="44.94704" lon="4.11967">
        <ele>1180.2</ele>
        <time>2023-02-07T16:08:16Z</time>
      </trkpt>
      <trkpt lat="44.94895" lon="4.11865">
        <ele>1185.4</ele>
        <time>2023-02-07T16:08:16Z</time>
      </trkpt>
      <trkpt lat="44.94909" lon="4.11862">
        <ele>1186.3</ele>
        <time>2023-02-07T16:08:16Z</time>
      </trkpt>
      <trkpt lat="44.94949" lon="4.11873">
        <ele>1188.4</ele>
        <time>2023-02-07T16:08:16Z</time>
      </trkpt>
      <trkpt lat="44.9498" lon="4.119">
        <ele>1190.4</ele>
        <time>2023-02-07T16:08:16Z</time>
      </trkpt>
      <trkpt lat="44.95002" lon="4.1194">
        <ele>1190.6</ele>
        <time>2023-02-07T16:08:16Z</time>
      </trkpt>
      <trkpt lat="44.95103" lon="4.12337">
        <ele>1196.8</ele>
        <time>2023-02-07T16:08:16Z</time>
      </trkpt>
      <trkpt lat="44.95114" lon="4.12357">
        <ele>1196.4</ele>
        <time>2023-02-07T16:08:16Z</time>
      </trkpt>
      <trkpt lat="44.95132" lon="4.12373">
        <ele>1195.6</ele>
        <time>2023-02-07T16:08:16Z</time>
      </trkpt>
      <trkpt lat="44.95149" lon="4.1238">
        <ele>1194.7</ele>
        <time>2023-02-07T16:08:16Z</time>
      </trkpt>
      <trkpt lat="44.95302" lon="4.12377">
        <ele>1202.2</ele>
        <time>2023-02-07T16:08:16Z</time>
      </trkpt>
      <trkpt lat="44.95335" lon="4.1237">
        <ele>1204.1</ele>
        <time>2023-02-07T16:08:16Z</time>
      </trkpt>
      <trkpt lat="44.95345" lon="4.12375">
        <ele>1205.2</ele>
        <time>2023-02-07T16:08:16Z</time>
      </trkpt>
      <trkpt lat="44.95352" lon="4.12384">
        <ele>1206.3</ele>
        <time>2023-02-07T16:08:16Z</time>
      </trkpt>
      <trkpt lat="44.95351" lon="4.12425">
        <ele>1209.5</ele>
        <time>2023-02-07T16:08:16Z</time>
      </trkpt>
      <trkpt lat="44.95313" lon="4.12607">
        <ele>1215.7</ele>
        <time>2023-02-07T16:08:16Z</time>
      </trkpt>
      <trkpt lat="44.95246" lon="4.12757">
        <ele>1231.8</ele>
        <time>2023-02-07T16:08:16Z</time>
      </trkpt>
      <trkpt lat="44.95245" lon="4.12773">
        <ele>1233.4</ele>
        <time>2023-02-07T16:08:16Z</time>
      </trkpt>
      <trkpt lat="44.9526" lon="4.12864">
        <ele>1238.5</ele>
        <time>2023-02-07T16:08:16Z</time>
      </trkpt>
      <trkpt lat="44.95285" lon="4.12939">
        <ele>1240.3</ele>
        <time>2023-02-07T16:08:16Z</time>
      </trkpt>
      <trkpt lat="44.95377" lon="4.13179">
        <ele>1238.9</ele>
        <time>2023-02-07T16:08:16Z</time>
      </trkpt>
      <trkpt lat="44.95434" lon="4.13399">
        <ele>1238.3</ele>
        <time>2023-02-07T16:08:16Z</time>
      </trkpt>
      <trkpt lat="44.95514" lon="4.13521">
        <ele>1236.8</ele>
        <time>2023-02-07T16:08:16Z</time>
      </trkpt>
      <trkpt lat="44.95584" lon="4.13611">
        <ele>1233.9</ele>
        <time>2023-02-07T16:08:16Z</time>
      </trkpt>
      <trkpt lat="44.95617" lon="4.13627">
        <ele>1232.4</ele>
        <time>2023-02-07T16:08:16Z</time>
      </trkpt>
      <trkpt lat="44.9569" lon="4.13619">
        <ele>1238.7</ele>
        <time>2023-02-07T16:08:16Z</time>
      </trkpt>
      <trkpt lat="44.95733" lon="4.13634">
        <ele>1242.1</ele>
        <time>2023-02-07T16:08:16Z</time>
      </trkpt>
      <trkpt lat="44.958" lon="4.13699">
        <ele>1246.5</ele>
        <time>2023-02-07T16:08:16Z</time>
      </trkpt>
      <trkpt lat="44.95873" lon="4.13786">
        <ele>1247.1</ele>
        <time>2023-02-07T16:08:16Z</time>
      </trkpt>
      <trkpt lat="44.9599" lon="4.13833">
        <ele>1250.7</ele>
        <time>2023-02-07T16:08:16Z</time>
      </trkpt>
      <trkpt lat="44.9604" lon="4.13835">
        <ele>1251.4</ele>
        <time>2023-02-07T16:08:16Z</time>
      </trkpt>
      <trkpt lat="44.96049" lon="4.13832">
        <ele>1251.8</ele>
        <time>2023-02-07T16:08:16Z</time>
      </trkpt>
      <trkpt lat="44.96053" lon="4.13842">
        <ele>1251.6</ele>
        <time>2023-02-07T16:08:16Z</time>
      </trkpt>
      <trkpt lat="44.96084" lon="4.14018">
        <ele>1252.6</ele>
        <time>2023-02-07T16:08:16Z</time>
      </trkpt>
      <trkpt lat="44.96182" lon="4.1419">
        <ele>1253.8</ele>
        <time>2023-02-07T16:08:16Z</time>
      </trkpt>
      <trkpt lat="44.96208" lon="4.14222">
        <ele>1253</ele>
        <time>2023-02-07T16:08:16Z</time>
      </trkpt>
      <trkpt lat="44.96222" lon="4.14247">
        <ele>1252.9</ele>
        <time>2023-02-07T16:08:16Z</time>
      </trkpt>
      <trkpt lat="44.96233" lon="4.1426">
        <ele>1252.6</ele>
        <time>2023-02-07T16:08:16Z</time>
      </trkpt>
      <trkpt lat="44.96247" lon="4.14266">
        <ele>1251.8</ele>
        <time>2023-02-07T16:08:16Z</time>
      </trkpt>
      <trkpt lat="44.9626" lon="4.14268">
        <ele>1251.3</ele>
        <time>2023-02-07T16:08:16Z</time>
      </trkpt>
      <trkpt lat="44.9635" lon="4.14243">
        <ele>1248.2</ele>
        <time>2023-02-07T16:08:16Z</time>
      </trkpt>
      <trkpt lat="44.96386" lon="4.14254">
        <ele>1248.2</ele>
        <time>2023-02-07T16:08:16Z</time>
      </trkpt>
      <trkpt lat="44.96426" lon="4.14252">
        <ele>1249.4</ele>
        <time>2023-02-07T16:08:16Z</time>
      </trkpt>
      <trkpt lat="44.96479" lon="4.14231">
        <ele>1249.4</ele>
        <time>2023-02-07T16:08:16Z</time>
      </trkpt>
      <trkpt lat="44.97073" lon="4.14237">
        <ele>1240</ele>
        <time>2023-02-07T16:08:16Z</time>
      </trkpt>
      <trkpt lat="44.97118" lon="4.14247">
        <ele>1236.4</ele>
        <time>2023-02-07T16:08:16Z</time>
      </trkpt>
      <trkpt lat="44.97155" lon="4.14238">
        <ele>1232.1</ele>
        <time>2023-02-07T16:08:16Z</time>
      </trkpt>
      <trkpt lat="44.97276" lon="4.14182">
        <ele>1224</ele>
        <time>2023-02-07T16:08:16Z</time>
      </trkpt>
      <trkpt lat="44.97481" lon="4.14167">
        <ele>1219</ele>
        <time>2023-02-07T16:08:16Z</time>
      </trkpt>
      <trkpt lat="44.97517" lon="4.14146">
        <ele>1221.2</ele>
        <time>2023-02-07T16:08:16Z</time>
      </trkpt>
      <trkpt lat="44.97609" lon="4.14253">
        <ele>1212.2</ele>
        <time>2023-02-07T16:08:16Z</time>
      </trkpt>
    </trkseg>
  </trk>
</gpx>